[Date Prev][Date Next][Thread Prev][Thread Next][Date Index][Thread Index]
[jamsat-news:1677] jas2info #267
========================   ºÇ¿·¾ðÊó   ==============================
        Last updated ¡¡22Mar2002 ¡¡18:00(JST)   #267 
====================================================================
   
£±¡Ë¥¢¥Þ¥Á¥å¥¢ÄÌ¿®±ÒÀ±¾ðÊ󡢣ƣϥ·¥ê¡¼¥º¤Îµ°Æ»Í×ÁÇ¡¢¥Æ¥ì¥á¥È¥ê¡¢£Ñ£Ó£Ï¤Î
¡¡¡¡¡¡¾õ¶·Åù¤ò¤Þ¤È¤á¤Æ¤ß¤Þ¤·¤¿¡¥
¡¡¡¡¡¡
¡¡£Æ£Ï¡Ý£²£¹¤Î£²£°£°£²Ç¯£³·î£²£²Æü¡Ê¶â¡Ë¤Î£±£¶¡§£³£·¡Ê£Ê£Ó£Ô¡Ë¤Î¥Ñ¥¹¤Ç¤Ï
£Ê£Á£Ò£Ì¤Î¥Û¡¼¥à¥Ú¡¼¥¸¤Î¤È¤¦¤ê¥¢¥Ê¥í¥°±¿ÍѤǤ·¤¿¡£¡¡º£Æü¤Þ¤Ç¤Î´Ñ¬¤·¤¿
¥Æ¥ì¥á¥È¥ê¡¼¤ÈºÇ½ª¤ÎʬÀÏ·ë²Ì¤òÊó¹ð¤·¤Æ¤ª¤¤Þ¤¹¡£
AS27626C  22Mar2002
16:37-16:48(JST)
AOS   MEL  LOS  Elev
 50    88  125   6.3
Freq. 435.798-.790MHz
HI HI AE 07 88 55 00 D4 FD 79 09 4B 79 56 59 54 5F 8C 97 5D 8C 8A 89 8A 85 
HI HI AE 07 88 55 00 D4 FD 79 09 4B 65 56 58 5D 8D 8A 97 71 8C 8A 89 8A 85 
HI HI AE 07 88 55 00 D4 FD 79 09 4B 70 55 60 58 8E 8C 99 77 8C 8A 89 8A 85 
HI HI AE 07 88 55 00 D4 FD 79 09 4B 7B 56 65 54 90 8E 9B 83 8C 8A 89 8A 85 
HI HI AE C7 88 55 00 D4 FD 79 09 4B 85 5E 67 5F 90 8E 9D 72 8D 8A 89 8A 85
HI HI AE C7 88 55 00 D4 FD 79 09 4B 8B 5E 72 5F 90 8E B0 6E 8D 8A 89 8A 85 
HI HI TE C7 88 55 00 D4 FD 79 09 4B 90 62 76 5F 8F 8E B0 6F 8D 8A 89 8A 85 
HI HI AE C7 88 55 00 D4 FD 79 09 4B 93 68 74 5F 8F 8E B0 73 8C 8A 89 8A 85  
HI HI AE C7 88 55 00 D4 FD 79 09 4B 94 6E 6D 5E 90 8E B0 8B 8C 8A 8A 8A 85 
HI HI AE C7 88 55 00 D4 FD 79 09 4B 92 73 6F 5F 90 8D B0 7A 8C 8A 8A 8A 85 
HI HI AE C7 88 55 00 D4 FD 79 09 4B 8E 77 74 5E 8F 8D B0 81 8C 8A 8A 8A 85 
HI HI AE C7 88 55 00 D4 FD 79 09 4B 89 7A 72 5E 8F 8D B0 6B 8C 8A 8A 8A 85 
HI HI AE C7 88 55 00 D4 FD 79 09 4B 82 7B 6F 5E 8F 8D B0 82 8C 8A 8A 8A 85 
HI HI AE C7 88 55 00 D4 FD 79 09 SB 7B 7A 6C 5E 8F 8D B0 61 8C 8A 8A 89 85 
HI HI AE C7 88 55 00 D4 FD 79 09 4B 74 79 62 5E 8F 8D B0 7B 8C 8A 8A 89 85 
AS27599C  20Mar2002
16:42-16:52(JST)
AOS   MEL  LOS  Elev
 49    88  128   7.0
Freq. 435.798-.790MHz
HI HI AE C7 88 55 00 D4 B5 6D 09 15 72 47 62 5F 90 8E B0 86 8B 8A 8A 8A 85 
HI HI AE C7 88 55 00 D4 B5 6D 09 15 6B 41 6A 5F 90 8E B0 88 8B 8A 8A 8A 85 
HI HI AE C7 88 55 00 D4 B5 6D 09 15 64 3D 70 5F 90 8D B0 8B 8B 8A 8A 8A 85 
HI HI AE C7 88 55 00 D4 B5 6D 09 15 5C 3C 76 5E 90 8E B0 6B 8B 8A 8A 8A 85 
HI HI AE C7 88 55 00 D4 B5 6D 09 15 54 3A 78 5E 90 8E B0 74 8B 8A 8A 8A 85 
HI HI AE C7 88 55 00 D4 B5 6D 09 15 4C 45 77 5F 90 8E B0 7C 8B 8A 8A 89 85 
HI HI AE C7 88 55 00 D4 B5 6D 09 15 45 4E 77 5F 90 8E B0 70 8B 8A 8A 89 85 
HI HI AE C7 88 55 00 D4 B5 6D 09 15 41 59 76 5E 90 8D B0 7C 8B 8A 8A 89 85 
HI HI AE C7 88 55 00 D4 B5 6D 09 15 3F 65 74 5F 8F 8D B0 9D 8B 8A 89 89 85 
HI HI AE C7 88 55 00 D4 B5 6D 09 15 3F 72 71 5E 8F 8D B0 86 8B 8A 89 89 85 
HI HI AE C7 88 55 00 D4 B5 6D 09 15 43 7E 77 5E 8F 8D B0 7E 8B 7B 89 89 85 
HI HI AE C7 88 55 00 D4 B5 6D 06 15 49 89 7D 5E 8E 8D B0 77 8C 8B 89 89 85      
 
------------------------¡¡£Æ£Ï-£²£¹¤Îµ°Æ»Í×ÁÇ¡¡------------------------------        
 
¡¡¡¡¢£ µ°Æ»Í×ÁÇ£±¡§¡Öjamsat¡Ýkeps¡§£±£°£¸£¸¡×¤è¤ê         
¡¡¡¡¡¡¡¡¡¡¡¡¡¡¡¡¡¡¡¡SB KEPS @ AMSAT  $ORB02080.N
¡¡¡¡¡¡¡¡¡¡¡¡¡¡¡¡¡¡¡¡2Line Orbital Elements 02080.AMSAT
HR AMSAT ORBITAL ELEMENTS FOR AMATEUR SATELLITES IN NASA FORMAT
FROM WA5QGD FORT WORTH,TX March 21, 2002
SEND SUBSCRIBE/UNSUBSCRIBE TO majordomo@amsat.org ONLY
BID: ORB02080.N
¡¡DECODE 2-LINE ELSETS WITH THE FOLLOWING KEY:
¡¡1 AAAAAU 00  0  0 BBBBB.BBBBBBBB  .CCCCCCCC  00000-0  00000-0 0  DDDZ
¡¡2 AAAAA EEE.EEEE FFF.FFFF GGGGGGG HHH.HHHH III.IIII JJ.JJJJJJJJKKKKKZ
¡¡KEY: A-CATALOGNUM B-EPOCHTIME C-DECAY D-ELSETNUM E-INCLINATION F-RAAN
¡¡G-ECCENTRICITY H-ARGPERIGEE I-MNANOM J-MNMOTION K-ORBITNUM Z-CHECKSUM
FO-29
1 24278U 96046B   02079.58954493  .00000043  00000-0  80348-4 0 04880
2 24278 098.5154 271.8444 0351695 005.2630 355.2055 13.52829720276012
 ¢£ µ°Æ»Í×ÁÇ£²¡§¡Öjamsat¡Ýkeps¡§£±£°£¸£·¡×¤è¤ê
¡¡¡¡¡¡¡¡¡¡¡¡¡¡¡¡ SB KEPS @ AMSAT  $ORB02080.O
¡¡¡¡¡¡¡¡¡¡¡¡¡¡¡¡¡¡Orbital Elements  02080.OSCAR
 
 HR AMSAT ORBITAL ELEMENTS FOR OSCAR SATELLITES
 FROM WA5QGD FORT WORTH,TX March 21, 2002
 SEND SUBSCRIBE/UNSUBSCRIBE TO majordomo@amsat.org ONLY
 BID: ORB02080.O
 TO ALL RADIO AMATEURS BT
Satellite: FO-29
Catalog number: 24278
Epoch time:      02079.58954493
Element set:    0488
Inclination:      098.5154 deg
RA of node:       271.8444 deg
Eccentricity:    0.0351695
Arg of perigee:   005.2630 deg
Mean anomaly:     355.2055 deg
Mean motion:   13.52829720 rev/day
Decay rate:        4.3e-07 rev/day^2
Epoch rev:           27601
Checksum:              324
-------------------¡¡¡¡FO-29¡ÊJAS-2)¤Î¥Æ¥ì¥á¥È¥ê¤Ë´Ø¤¹¤ë¾ðÊó¡¡¡¡----------------------¡¡
¡¡
£²¡Ë¾åµ£²£°£°£²Ç¯£³·î£²£²Æü¡Ê¶â¡Ë¤Î¥Æ¥ì¥á¥È¥ê¤ÎºÇ½ª¹Ô¤òʬÀϤ·¤Æ¤ª¤¤Þ¤¹.
AS27626C  22Mar2002
16:37-16:48(JST)
AOS   MEL  LOS  Elev
 50    88  125   6.3
Freq. 435.798-.790MHz
HI HI AE C7 88 55 00 D4 FD 79 09 4B 74 79 62 5E 8F 8D B0 7B 8C 8A 8A 89 85 
 
¥Æ¥ì¥á¥È¥ê¡¡  Æâ¡¡ÍÆ¡¡ ¡¡      ´¹»»»»ÃÍ¡¡Ã± °Ì
£³£Ã	¼§µ¤¥»¥ó¥µ¡¼£Ú¼´=	56862.7	[nT]
£³£Ä	¼§µ¤¥»¥ó¥µ£Ø¼´	=	59313.7	[nT]
£´£Á	ÂÀÍÛÅÅÃÓȯÀ¸ÅÅή=	  960.8	[mA]
£´£Â	£Â½¼ÊüÅÅÅÅή	=	 -157.6	[mA]
£´£Ã	£Âü»ÒÅ۵	=	   15.4	[V]
£´£Ä	£ÂÃæ´Öü»ÒÅ۵	=	    6.8	[V]
£µ£Á	¥Ð¥¹Å۵	=	   17.3	[V]
£µ£Â	£Ê£Ô£ÁÁ÷¿®ÅÅÎÏ	=	  701.4	[mW]
£µ£Ã 	¹½Âβ¹ÅÙ£±	=	   27.5	[¡î]
£µ£Ä	¹½Âβ¹ÅÙ£²	=	   28.3	[¡î]
£¶£Á	¹½Âβ¹ÅÙ£³	=	   28.3	[¡î]
£¶£Â	¹½Âβ¹ÅÙ£´	=	   28.7	[¡î]
£¶£Ã	£Â¥»¥ë²¹ÅÙ	=	   30.2	[¡î]
 ==========================¡¡FO-29¡Ê¤Õ¤¸£³¹æ¡Ë¤Î¥Æ¥ì¥á¥È¥êʬÀÏ¡¢£Ñ£Ó£Ï¾ðÊóÅù¡¡=====================
   
¡¡£³)[jamsat-bb:
 ===============================================================================
¡¡
¡¡£´¡Ë£Ê£Á£Ò£Ì ¤Î¥Û¡¼¥à¥Ú¡¼¥¸¤Ë±¿ÍÑͽÄ꤬µºÜ¤µ¤ì¤Æ¤¤¤Þ¤·¤¿¤Î¤Ç¤´¾Ò²ð¤·¤Þ¤¹¡¥
       ¡Ê http://www.jarl.or.jp/Japanese/3_Fuji/new/uy.htm ¡Ë
       
¡¡¡¡¡¡¡¡¡¡¡¡¡¡¡¡¤Õ¤¸£³¹æ¡Ê£Ê£Á£Ó¡Ý£²¡Ë¤Î±¿ÍÑ ¡¡¡¡¡¡¡¡¡¡¡¡¡¡¡¡ 
¡¡¡¡¡¡¡¡¡¡¡¡¡¡¡ö¡ö¡ö¡¡±¿ÍÑͽÄê¤Ë¤Ä¤¤¤Æ¡¡¡ö¡ö¡ö
¡¡¡¡Ê¿À®£±£³Ç¯¡¡¡¡¡¡¡¡¡¡ Ê¿À®£±£´Ç¯
¡¡£±£²·î£´Æü¡Ê²Ð¡Ë¡¡¡Á¡¡£³·î£³£±Æü¡ÊÆü¡Ë¥¢¥Ê¥í¥°·Ï±¿ÍÑ
¡¡¡¡¡ö¤Ê¤ª¡¤±¿ÍÑͽÄê¤ÏÅÔ¹ç¤Ë¤è¤ê¡¤Êѹ¹¤¹¤ë¤³¤È¤¬¤¢¤ê¤Þ¤¹¤Î¤Ç¡¤
¡¡¡¡¡¡¤¢¤é¤«¤¸¤á¤´Î»¾µ´ê¤¤¤Þ¤¹¡£
¡¡¾È²ñÀè¡¡¡§¡¡lab@jarl.or.jp
¡¡ºÇ¿·¤Î¾ðÊó¤Ï¥Æ¥ì¥Û¥ó¥µ¡¼¥Ó¥¹¡Ê£°£³¡Ý£³£¹£´£²¡Ý£±£°£°£°¡Ë¤ò¤ªÊ¹¤¤¯¤À¤µ¤¤¡£¡¡¡¡
¡¡°Ê¸å¤Î±¿ÍѤˤĤ¤Þ¤·¤Æ¤ÏÊ¿À®£±£´Ç¯£´·î¾å½Ü¤Ë¤ªÃΤ餻¤¤¤¿¤·¤Þ¤¹ 
 ¡¡¡¡¡¡¡¡
-----------------------    £Æ£Ï¡Ý£²£°¡ÊJAS-£±£â¡ËÆ»Í×ÁÇ   -------------------------
 ¡¡
 ¡¡¢£ µ°Æ»Í×ÁÇ£± ¡§½Ðŵ¤Ï£Æ£Ï-£²£¹¡Ö¤Õ¤¸£³¹æ¡×¤ËƱ¤¸¡¥
  
FO-20
1 20480U 90013C   02079.62596720  .00000035  00000-0  14528-3 0 03852
2 20480 099.0266 100.9131 0540904 043.0040 321.2044 12.83312572567554
 
 ¡¡¢£ µ°Æ»Í×ÁÇ£² ¡§½Ðŵ¤Ï£Æ£Ï¡Ý£²£¹¡Ö¤Õ¤¸£³¹æ¡×¤ËƱ¤¸¡¥
               
Satellite: FO-20
Catalog number: 20480
Epoch time:      02079.62596720
Element set:    0385
Inclination:      099.0266 deg
RA of node:       100.9131 deg
Eccentricity:    0.0540904
Arg of perigee:   043.0040 deg
Mean anomaly:     321.2044 deg
Mean motion:   12.83312572 rev/day
Decay rate:        3.5e-07 rev/day^2
Epoch rev:           56755
Checksum:              264
--------------------------------------------------------------------------------¡¡
¡¡        ¢£ ¤Õ¤¸£²¹æ¡¿£Æ£Ï¡Ý£²£°/JAS-1£â ¢£  ¡¡   
            
¡¡¡¡¡¡¡¡¡¡¡¡¡¡¡¡¡¡¡¡¡Ö¤Õ¤¸£²¹æ¡×¡¡¸½¶·                                                                                  
             
   JAS-1b¡Ê¤Õ¤¸£²¹æ¡Ë¤Î£Ã£×¥Æ¥ì¥á¥È¥ê¿®¹æ¤Ë¡¤£±£¹£¹£·Ç¯£±£°·î£±£²Æü£±£²»þ¡Ê£Ê£Ó£Ô¡Ë¤Î
¡¡ÆüËܾå¶õÄ̲á»þ¡¤£³·å¤Î¿ô»ú¤¬·«¤êÊÖ¤µ¤ì¤ë¤Ï¤º¤¬£³¸Ä¤ÎĹ²»¤Î·«¤êÊÖ¤·¤È¤Ê¤Ã¤Æ¤¤¤ë¤È¤¤¤¦
¡¡°Û¾ï¤¬È¯¸«¤µ¤ì¤Þ¤·¤¿¡£¤³¤ÎÉÔ¶ñ¹ç¤Ï¼¡¤ÎÄ̲á»þ¤«¤é¤Ï²óÉü¤·¤Æ¤¤¤Þ¤·¤¿¤¬£±£³Æü£±£µ»þ£²£°Ê¬¤Î
¡¡Ä̲á»þ¤ËºÆ¤Ó´Ñ¬¤µ¤ì¤Þ¤·¤¿¡£¸½ºß¤Ï£Á£°¤ÎÁ÷¿®¤¬Â³¤¤¤Æ¤¤¤Þ¤¹¡£±ÒÀ±¤Î¥¢¥Ê¥í¥°·ÏÃæ·Ñ¥â¡¼¥É
¡¡Æ°ºî¤Ï°Û¾ï¤¬Ìµ¤¯¡¤Àµ¾ï»þ¤Î¥Æ¥ì¥á¥È¥êÆâÍÆ¤«¤é¤Ï±ÒÀ±¤Îưºî¤Ë°Û¾ï¤Ïǧ¤á¤é¤ì¤Þ¤»¤ó¡£½¾¤Ã¤Æ¡¤
¡¡Ä¾¤Á¤Ë±ÒÀ±¤Î¥ß¥Ã¥·¥ç¥ó¤Ë±Æ¶Á¤¹¤ë¤³¤È¤Ï̵¤¤¤ÈͽÁÛ¤µ¤ì¤Þ¤¹¤Î¤Ç¡¤ÅöÌ̤ϥ¢¥Ê¥í¥°·ÏÃæ·Ñ
¡¡¥â¡¼¥É¤ò·Ñ³¤·¤Þ¤¹¡£±ÒÀ±¤Ï´û¤ËÂǤÁ¾å¤²¤Æ¤«¤é£·Ç¯£¸¥ö·î¤ò·Ð¤Æ¤ª¤ê¤Þ¤¹¤Î¤Ç¡¤º£¸å¤Ï´Æ»ë¤ò
¡¡¶¯²½¤¹¤ëͽÄê¤Ç¤¹¡£¥¢¥Þ¥Á¥å¥¢³Æ°Ì¤Î¥ì¥Ý¡¼¥È¤ò¤ªÂÔ¤Á¤·¤Þ¤¹¡£
¡¡-------------------------------------------------------------------------------- 
¡¡¡¡1997ǯ10·î14Æü¡¡00»þ35ʬ ³Îǧ¤Î¥Æ¥ì¥á¥È¥ê²» 151 KB ¡Ê£Á£°¡Ë 
¡¡¡¡1997ǯ10·î14Æü¡¡11»þ10ʬ ³Îǧ¤Î¥Æ¥ì¥á¥È¥ê²» 216 KB ¡Ê°Û¾ï¥¡¼¥¤¥ó¥°¡Ë 
  °Ê¾å¡¡£Ê£Á£Ò£Ì¤Î¥Û¡Ý¥à¥Ú¡¼¥¸¤Î http://www.jarl.or.jp/Japanese/3_Fuji/new/fuji.htm
===================== FO-20¡¡¤Õ¤¸£²¹æ¡¡¤Î¥Æ¥ì¥á¥È¥ê´Ñ¬·ë²Ì¡¡====================
  £³·î£¸Æü¡Ê¶â¡Ë£±£¸¡§£±£¸¡ÊJST)¤Î´Ñ¬·ë²Ì¤Ç¤Ï¥Æ¥ì¥á¥È¥ê¤Ï¡¢°ÊÁ°´Ñ¬¤·¤¿Ã±°ì¼þÇÈ¿ô¤Î
Àµ¸¹ÇȤ¬¥É¥Ã¥×¥é¡¼¸ú²Ì¤Ç¼þÇÈ¿ô¤¬¤º¤ì¤Æ¤¤¤¯¤Î¤ß¤Î¾õÂ֤Ǥ·¤¿¡£
                                         
   =============   JAS-2 ¡Ê¤Õ¤¸£³¹æ¡Ë¤È¸½ºß¤Þ¤Ç¤Î¾ðÊó   ===========
  
  £Á¡¥ÅÅÏäˤè¤ë¤Õ¤¸£³¹æ¤Î±¿ÍѾðÊó
      ¼ÒÃÄË¡¿ÍÆüËÜ¥¢¥Þ¥Á¥å¥¢Ï¢ÌÁ¤Ë¤è¤ë¥µ¡¼¥Ó¥¹
           £Ô£Å£Ì ¡¥   £°£³¡Ý £³£¹£´£² ¡Ý £±£°£°£°
  £Â¡¥¥¢¥Þ¥Á¥å¥¢ÌµÀþ£Æ£Á£Ø¥µ¡¼¥Ó¥¹
      £Ê£Á£Ò£Ì¤Ë¤è¤ë¤Õ¤¸£³¹æ¤Îµ°Æ»¾ðÊó¡Ê¥ª¡¼¥Ó¥Ã¥È¥«¥ì¥ó¥À¡¼¡Ë
         £Æ£Á£Ø £Î£ï¡¥  £°£³¡Ý £³£²£³£³ ¡Ý£°£°£µ£µ
  £Ã¡¥£×£×£×¥Ö¥é¥¦¥¶¤Ç¾ðÊó¤ò´Êñ¤Ë¸«¤ì¤ë¿Í¤Î¤¿¤á¤Ë£Ê£Á£Ó¡Ý£²
     ¤Õ¤¸£³¹æ¤Î±ÒÀ±¤È¤·¤Æ¤Î±¿ÍѤµ¤ì¤ë¤Þ¤Ç¤Î̾Á°¡Ë¤Î³µÍס¢ÂǤÁ¾å¤²
     ¤Þ¤Ç¤Î¾õ¶·¡¢±¿ÍÑÃæ¤Ë¤ª¤±¤ë¾õ¶·¤òÀâÌÀ¤·¤¿¥Û¡¼¥à¥Ú¡¼¥¸¤ò¾Ò²ð¤·
     ¤Æ¤ª¤¤Þ¤¹¡¥
    ¡ ¼ÒÃÄË¡¿ÍÆüËÜ¥¢¥Þ¥Á¥å¥¢ÌµÀþÏ¢ÌÁ¡Ê£Ê£Á£Ò£Ì¡Ë¤Î¥Û¡¼¥à¥Ú¡¼¥¸
          http://www.jarl.or.jp/Japanese/3_Fuji/jasmenu.htm
 
    ¢ ±§Ã賫ȯ»ö¶ÈÃġʣΣÁ£Ó£Ä£Á¡Ë¥Û¡¼¥à¥Ú¡¼¥¸ 
          http://www.nasda.go.jp/
         ÂǾ夲±ÒÀ±¡¡¡§Ãϵå´Ñ¬¥×¥é¥Ã¥È¥Õ¥©¡¼¥àµ»½Ñ±ÒÀ±¡ÊADEOS¡Ë 
                       ¥¢¥Þ¥Á¥å¥¢±ÒÀ±£³¹æ(JAS-2)
          http://spaceboy.nasda.go.jp/note/eisei/j/Eis15h_j.html#Eis15h_01_j
¡¡¡¡¡¡¡¡¡¡http://spaceboy.nasda.go.jp/note/eisei/j/Eis15i_j.html        
  £Ä¡¥£Ê£Á£Í£Ó£Á£Ô¤Ë¤è¤ëµ°Æ»¾ðÊó¤Î³èÍÑ
        JAMSAT¤Î¥Û¡¼¥à¥Ú¡¼¥¸¤Þ¤¿¤Ïjamsat¡Ýkeps¤Îµ°Æ»Í×ÁǤè¤ê
      ±ÒÀ±¤Îµ°Æ»¾ðÊó¤òÆÀ¤ë¡¥
     £Ê£Á£Í£Ó£Á£Ô¥Û¡¼¥à¥Ú¡¼¥¸
               £Õ£Ò£Ì    http://www.jamsat.or.jp
       ¾åµ¥Û¡¼¥à¥Ú¡¼¥¸¤Ç¤Ï³ÆÃϤǹԤï¤ì¤ë¥¢¥Þ¥Á¥å¥¢ÄÌ¿®±ÒÀ±¤Ë´Ø¤¹¤ë
      ¥ß¥å¡¼¥Æ¥£¥ó¥°¤Î¤ªÃΤ餻¤äÀ¤³¦¤Î¥¢¥Þ¥Á¥å¥¢±ÒÀ±¤Ë´Ø¤¹¤ë¾ðÊó¤¬
      ËþºÜ¤µ¤ì¤Æ¤¤¤Þ¤¹¡¥
¡¡========================================================================  
¡¡    £Ê£Á£Í£Ó£Á£Ô¤Î¥á¥ó¥Ð¡¼¤Î¤´¶¨ÎϤˤè¤ê£Ê£È£¶£Í£Í£Å¡Ê¹â»³ ½¨Â¤¡Ë¤¬
    ¼¹É®¡¦ÊÔ½¸¤òôÅö¤·¤Æ¤ª¤ê¤Þ¤¹¡¥¤´»ØÅ¦¤Î°Õ¸«¡¢µ¿Ìä¤ä¤³¤Î¤è¤¦¤Ë¤·¤¿¤é
    ¤È¤¤¤¦¥¢¥¤¥Ç¥¢¤¬¤¢¤ê¤Þ¤·¤¿¤é¾®¤µ¤Ê¤³¤È¤Ç¤â¤«¤Þ¤¤¤Þ¤»¤ó¤Î¤Çµ¤·Ú¤Ë²¼
    µ¥¢¥É¥ì¥¹¤Þ¤Ç¤´Ï¢Íí¤¯¤À¤µ¤¤¡¥£ê£á£í£ó£á£ô¡Ý£î£å£÷£ó¤«¤é£ê£á£ó£²
    £é£î£æ£ï¤Ø¤ÎžºÜ¤ò£Ê£È£´£Ð£È£×¶Éºä°æ¤µ¤ó¤ËôÅö¤·¤ÆÄº¤¤¤Æ¤ª¤ê¤Þ¤¹¡¥  
                  E-mail : jh6mme@jamsat.or.jp : jh4phw@jamsat.or.jp
 ===============================   £Å£Î£Ä  ===============================